This is the latest recevied weather packets stored in our database for station/object KB8SSH. If no packets are shown the sender has not sent any weather packets the latest 10 day(s).
| Time | Temp. | Humidity | Pressure | Rain* | Wind** | Luminosity | Snow |
|---|---|---|---|---|---|---|---|
| 1777728758 | 5.56° C | 76% | 1051.2 hPa | 0 mm | - | 35 W/m² | - |
| 1777728454 | 5° C | 78% | 1050.9 hPa | 0 mm | - | 35 W/m² | - |
| 1777728151 | 5° C | 78% | 1050.9 hPa | 0 mm | - | 52 W/m² | - |
| 1777727848 | 5° C | 77% | 1050.9 hPa | 0 mm | - | 35 W/m² | - |
| 1777727546 | 4.44° C | 78% | 1050.9 hPa | 0 mm | - | 39 W/m² | - |
| 1777727242 | 4.44° C | 80% | 1051.2 hPa | 0 mm | - | 41 W/m² | - |
| 1777726940 | 3.89° C | 79% | 1051.2 hPa | 0 mm | - | 49 W/m² | - |
| 1777726636 | 3.89° C | 80% | 1050.9 hPa | 0 mm | - | 54 W/m² | - |
| 1777726334 | 3.89° C | 80% | 1050.9 hPa | 0 mm | - | 32 W/m² | - |
| 1777726031 | 3.89° C | 81% | 1050.9 hPa | 0 mm | - | 31 W/m² | - |
| 1777725727 | 3.33° C | 82% | 1050.9 hPa | 0 mm | - | 30 W/m² | - |
| 1777725426 | 3.33° C | 83% | 1050.9 hPa | 0 mm | - | 29 W/m² | - |
| 1777725123 | 3.33° C | 84% | 1050.9 hPa | 0 mm | - | 30 W/m² | - |
| 1777724819 | 2.78° C | 85% | 1050.9 hPa | 0 mm | - | 35 W/m² | - |
| 1777724516 | 2.78° C | 88% | 1050.9 hPa | 0 mm | - | 28 W/m² | - |
| 1777724214 | 2.78° C | 91% | 1050.6 hPa | 0 mm | - | 35 W/m² | - |
| 1777723911 | 2.22° C | 94% | 1050.9 hPa | 0 mm | - | 31 W/m² | - |
| 1777723608 | 2.22° C | 97% | 1050.9 hPa | 0 mm | - | 27 W/m² | - |
| 1777723305 | 1.67° C | 98% | 1050.6 hPa | 0 mm | - | 26 W/m² | - |
| 1777723002 | 1.67° C | 99% | 1050.6 hPa | 0 mm | - | 25 W/m² | - |
| 1777722698 | 1.67° C | 99% | 1050.9 hPa | 0 mm | - | 24 W/m² | - |
| 1777722394 | 1.11° C | 99% | 1050.6 hPa | 0 mm | - | 23 W/m² | - |
| 1777722092 | 1.11° C | 99% | 1050.9 hPa | 0 mm | - | 23 W/m² | - |
| 1777721789 | 1.11° C | 99% | 1050.6 hPa | 0 mm | - | 22 W/m² | - |
| 1777721487 | 0.56° C | 99% | 1050.9 hPa | 0 mm | - | 21 W/m² | - |
* Rain latest hour (hover to see other rain measurements)
** Current wind speed in m/s (hover to see current wind gust speed)